Regional Weather Roundup
Issued by NWS

Home | Current Version | Previous Version | Text Only | Print | Product List | Glossary Off
Versions: 1 2 3 4 5 6 7 8 9 10 11 12 13 14 15 16 17 18 19 20 21 22 23 24 25 26 27 28 29 30 31 32 33 34 35 36 37 38 39 40 41 42 43 44 45 46 47 48 49 50

000
ASUS43 KDMX 241101
RWRIA

WEATHER ROUNDUP FOR IOWA
NATIONAL WEATHER SERVICE DES MOINES IA
500 AM CST FRI FEB 24 2017

NOTE: "FAIR" INDICATES FEW OR NO CLOUDS BELOW 12,000 FEET WITH NO
SIGNIFICANT WEATHER AND/OR OBSTRUCTIONS TO VISIBILITY.

* - THESE STATIONS ARE NOT NWS STATIONS...THUS NOT UNDER NWS
QUALITY CONTROL.  THEY ALSO DO NOT REPORT WEATHER SUCH
AS PRECIPITATION OR FOG.

IAZ001>003-012>014-020>022-031>034-043>046-241200-
   NORTHWEST IOWA

CITY           SKY/WX    TMP DP  RH WIND       PRES   REMARKS
CARROLL *      RAIN      30  30 100 N30       29.61R WCI  15
CHEROKEE *     MIX PCPN  26  25  94 N16G24    29.72R WCI  14
DENISON *      HVY RAIN  28  28 100 NE22G33   29.60R VSB 3/4 WCI  15
LE MARS *      MIX PCPN  27  25  93 N25G35    29.78R VSB 1   WCI  11
ORANGE CITY *    N/A    N/A N/A N/A MISG        N/A
SHELDON *      SNOW      25  25 100 N26G36    29.76R VSB 1/2 WCI   9
SIOUX CITY     FOG       28  25  88 N24G36    29.75R VSB 1/4 WCI  14
SPENCER        CLOUDY    25  22  88 N24G32    29.73R FOG     WCI   9
STORM LAKE *   LGT SNOW  27  25  93 N29G39    29.65S WCI  11
$$

IAZ055>058-069>071-079>083-090>094-241200-
   SOUTHWEST IOWA

CITY           SKY/WX    TMP DP  RH WIND       PRES   REMARKS
ATLANTIC *     MIX PCPN  32  30  93 NE25G35   29.57R WCI  19
CLARINDA *     CLOUDY    36  34  93 N18       29.57R WCI  25
COUNCIL BLFS * HVY RAIN  30  30 100 N18G26    29.62R WCI  18
CRESTON *      CLOUDY    34  34 100 N18G25    29.50R FOG     WCI  23
HARLAN  *      HVY RAIN  30  30 100 N22G30    29.63R WCI  17
LAMONI         CLOUDY    36  35  96 N13       29.49R FOG     WCI  27
RED OAK *      CLOUDY    34  32  93 N14G22    29.58R WCI  24
SHENANDOAH *   CLOUDY    36  32  87 N15G22    29.59R WCI  26
$$

IAZ047>049-059>061-072>074-084-241200-
   CENTRAL IOWA

CITY           SKY/WX    TMP DP  RH WIND       PRES   REMARKS
AMES           CLOUDY    33  33 100 NE21G32   29.54F WCI  21
ANKENY *       CLOUDY    34  32  93 NE22G31   29.53S WCI  22
BOONE *        CLOUDY    32  32 100 NE31G40   29.53S WCI  17
CHARITON *     CLOUDY    36  34  93 N14G21    29.47R FOG     WCI  27
DES MOINES     DRIZZLE   36  32  85 NE22G30   29.50F WCI  25
GRINNELL*      DRIZZLE   33  32  96 NE20G26   29.49F WCI  22
KNOXVILLE *    MIX PCPN  36  34  93 NE20G31   29.43F WCI  25
MARSHALLTOWN   CLOUDY    33  32  96 NE24G35   29.52F WCI  20
NEWTON *       CLOUDY    34  32  93 NE20G30   29.49S FOG     WCI  22
PELLA *        CLOUDY    34  33  96 NE18G29   29.46F FOG     WCI  23
PERRY *        CLOUDY    33  31  94 NE22G29   29.55S WCI  21
$$

IAZ004>006-015-016-023>025-035-036-241200-
   NORTH CENTRAL IOWA

CITY           SKY/WX    TMP DP  RH WIND       PRES   REMARKS
ALGONA *       CLOUDY    27  27 100 N37G43    29.65S FOG     WCI   9
CLARION *      FOG       30  30 100 NE37      29.57F VSB 1/2 WCI  14
ESTHERVILLE    CLOUDY    24  23  96 N24G33    29.72R FOG     WCI   8
FORT DODGE *   CLOUDY    28  25  86 N17G25    29.61S WCI  16
MASON CITY     LGT SNOW  28  28 100 N25G37    29.64S FOG     WCI  13
FOREST CITY *  MIX PCPN  28  28 100 NE22G32   29.65S WCI  15
WEBSTER CITY * CLOUDY    30  28  93 NE28G39   29.54F WCI  16
IOWA FALLS *   CLOUDY    32  30  93 N28G35    29.56F WCI  18
$$

IAZ007>011-017>019-026>030-037>042-050>054-066-241200-
   NORTHEAST IOWA

CITY           SKY/WX    TMP DP  RH WIND       PRES   REMARKS
CEDAR RAPIDS   LGT RAIN  34  34 100 NE15G25   29.47F FOG     WCI  24
CHARLES CITY * LGT RAIN  30  30 100 N25G32    29.59F WCI  16
CLINTON *      CLOUDY    37  36  96 NE24G30   29.47R WCI  26
DECORAH *      LGT SNOW  32  30  93 NE13G23   29.61F WCI  22
DUBUQUE        MIX PCPN  32  32 100 NE23G30   29.50F FOG     WCI  19
MONTICELLO *   LGT RAIN  34  32  93 NE15G22   29.49F WCI  24
OELWEIN *      LGT RAIN  32  32 100 NE28      29.55F WCI  18
WATERLOO       CLOUDY    33  30  88 NE21G29   29.56F FOG     WCI  21
$$

IAZ064-065-067-068-078-241200-
   EAST CENTRAL IOWA

CITY           SKY/WX    TMP DP  RH WIND       PRES   REMARKS
DAVENPORT      CLOUDY    37  36  96 NE17      29.46R WCI  27
IOWA CITY      CLOUDY    37  35  92 NE16      29.47S WCI  28
MUSCATINE *    CLOUDY    39  37  93 E10       29.47R WCI  32
QUAD CITIES    CLOUDY    42  37  82 NE12      29.45R
$$

IAZ062-063-075>077-085>089-095>099-241200-
   SOUTHEAST IOWA

CITY           SKY/WX    TMP DP  RH WIND       PRES   REMARKS
BURLINGTON     CLOUDY    42  42 100 NE12      29.39F FOG
FAIRFIELD *    CLOUDY    37  37 100 NE13      29.44R FOG     WCI  29
KEOKUK *       CLOUDY    45  43  93 NW7G13    29.40R FOG
OTTUMWA        CLOUDY    37  37 100 NE15G23   29.44R FOG     WCI  28
WASHINGTON *   CLOUDY    37  37 100 NE16      29.46R FOG     WCI  28
$$

ABBREVIATIONS USED IN REMARKS
   TC - TEMPERATURES IN CELSIUS
  WCI - WIND CHILL INDEX
   HX - HEAT INDEX
  VSB - VISIBILITY
$$





USA.gov is the U.S. government's official web portal to all federal, state and local government web resources and services.